Regional Weather Roundup
Issued by NWS

Home | Current Version | Previous Version | Graphics & Text | Print | Product List | Glossary On
Versions: 1 2 3 4 5 6 7 8 9 10 11 12 13 14 15 16 17 18 19 20 21 22 23 24 25 26 27 28 29 30 31 32 33 34 35 36 37 38 39 40 41 42 43 44 45 46 47 48 49 50
000
ASUS45 KBOI 290610
RWRID
WEATHER ROUNDUP FOR IDAHO
NATIONAL WEATHER SERVICE BOISE ID
1200 AM MDT FRI AUG 29 2014

NOTE: "FAIR" INDICATES FEW OR NO CLOUDS BELOW 12000 FEET
WITH NO SIGNIFICANT WEATHER AND/OR OBSTRUCTIONS TO VISIBILITY

IDZ012-014-290700-
SOUTHWEST IDAHO


CITY           SKY/WX    TMP DP  RH WIND       PRES   REMARKS
BOISE          CLEAR     73  38  27 E3        29.95R
CALDWELL       CLEAR     64  45  48 N3        29.96R
MOUNTAIN HOME  CLEAR     70  44  39 CALM      29.95S
$$

IDZ016-017-290700-
SOUTHCENTRAL IDAHO


CITY           SKY/WX    TMP DP  RH WIND       PRES   REMARKS
BURLEY         CLEAR     61  50  67 S12       30.04S
JEROME         CLEAR     65  47  52 E7        30.04S
TWIN FALLS     CLEAR     68  45  43 S10       30.04F
$$

IDZ019>023-290700-
SOUTHEAST IDAHO


CITY           SKY/WX    TMP DP  RH WIND       PRES   REMARKS
IDAHO FALLS    PTCLDY    65  44  46 SW10      30.05S
POCATELLO      CLEAR     73  42  32 S13       30.06S
REXBURG        PTCLDY    64  44  48 E8        30.06F
$$

IDZ006-010-011-018-031-032-290700-
CENTRAL IDAHO MOUNTAINS


CITY           SKY/WX    TMP DP  RH WIND       PRES   REMARKS
MCCALL         MOCLDY    65  41  41 N6        30.10R
HAILEY         CLEAR     61  43  51 NW8       30.13S
STANLEY          N/A     48  35  60 S6        30.22R
SALMON         PTCLDY    61  46  59 SE6       30.03R
CHALLIS        CLEAR     66  38  35 CALM      30.09R
$$

IDZ002-004-006-007-026-290700-
NORTHERN IDAHO


CITY           SKY/WX    TMP DP  RH WIND       PRES   REMARKS
LEWISTON       CLEAR     69  43  38 E7        29.95R
LOWELL           N/A     62  54  74 N5        30.00R
COEUR D`ALENE  CLEAR     66  45  45 S6        29.96S
MULLAN PASS    CLEAR     56  38  50 W6        30.15S
$$



USA.gov is the U.S. government's official web portal to all federal, state and local government web resources and services.